TimeCST,TemperatureF,Dew PointF,Humidity,Sea Level PressureIn,VisibilityMPH,Wind Direction,Wind SpeedMPH,Gust SpeedMPH,PrecipitationIn,Events,Conditions,WindDirDegrees,DateUTC
12:15 AM,41.0,37.4,87,29.30,7.0,SSW,3.5,-,N/A,,Overcast,210,2013-02-11 06:15:00
12:35 AM,39.2,37.4,93,29.30,5.0,SSW,3.5,-,N/A,Rain,Light Rain,200,2013-02-11 06:35:00
12:55 AM,41.0,37.4,87,29.30,7.0,SW,4.6,-,N/A,,Drizzle,230,2013-02-11 06:55:00
1:15 AM,39.2,35.6,87,29.29,10.0,SW,6.9,-,N/A,,Light Drizzle,220,2013-02-11 07:15:00
1:35 AM,39.2,35.6,87,29.29,10.0,SSW,5.8,-,N/A,,Overcast,210,2013-02-11 07:35:00
1:55 AM,37.4,35.6,93,29.29,10.0,SSW,10.4,16.1,N/A,,Overcast,210,2013-02-11 07:55:00
2:15 AM,37.4,33.8,87,29.29,10.0,SSW,4.6,-,N/A,,Overcast,210,2013-02-11 08:15:00
2:35 AM,37.4,33.8,87,29.29,4.0,SSW,5.8,-,N/A,,Drizzle,200,2013-02-11 08:35:00
2:55 AM,37.4,33.8,87,29.29,5.0,SSW,5.8,-,N/A,Rain,Rain,200,2013-02-11 08:55:00
3:15 AM,35.6,33.8,93,29.29,5.0,SSW,6.9,-,N/A,,Drizzle,210,2013-02-11 09:15:00
3:35 AM,35.6,33.8,93,29.28,10.0,SSW,6.9,-,N/A,,Drizzle,200,2013-02-11 09:35:00
3:55 AM,35.6,33.8,93,29.28,7.0,SSW,3.5,-,N/A,,Drizzle,200,2013-02-11 09:55:00
4:15 AM,35.6,33.8,93,29.29,7.0,SSW,6.9,-,N/A,,Drizzle,210,2013-02-11 10:15:00
4:35 AM,35.6,32.0,87,29.29,7.0,SSW,8.1,-,N/A,,Drizzle,210,2013-02-11 10:35:00
4:55 AM,33.8,32.0,93,29.29,3.0,SSW,6.9,-,N/A,Rain,Rain,210,2013-02-11 10:55:00
5:15 AM,33.8,32.0,93,29.29,4.0,SW,9.2,-,0.02,Rain,Rain,220,2013-02-11 11:15:00
5:35 AM,33.8,32.0,93,29.30,5.0,SW,6.9,-,0.02,Snow,Light Snow,220,2013-02-11 11:35:00
5:55 AM,33.8,32.0,93,29.30,4.0,SSW,4.6,-,0.02,Snow,Light Snow,210,2013-02-11 11:55:00
6:15 AM,33.8,32.0,93,29.30,4.0,SW,4.6,-,N/A,Snow,Light Snow,220,2013-02-11 12:15:00
6:35 AM,33.8,32.0,93,29.31,3.0,SW,5.8,-,N/A,Snow,Light Snow,220,2013-02-11 12:35:00
6:55 AM,33.8,32.0,93,29.31,4.0,SW,6.9,-,N/A,Snow,Light Snow,220,2013-02-11 12:55:00
7:15 AM,33.8,32.0,93,29.32,5.0,SW,4.6,-,N/A,Snow,Light Snow,220,2013-02-11 13:15:00
7:35 AM,33.8,32.0,93,29.32,5.0,SW,5.8,-,N/A,Snow,Light Snow,220,2013-02-11 13:35:00
7:55 AM,33.8,32.0,93,29.33,5.0,SW,8.1,-,N/A,Snow,Light Snow,230,2013-02-11 13:55:00
8:15 AM,33.8,32.0,93,29.33,7.0,SW,8.1,-,N/A,,Light Drizzle,230,2013-02-11 14:15:00
8:35 AM,35.6,32.0,87,29.34,7.0,SW,6.9,-,N/A,,Light Drizzle,230,2013-02-11 14:35:00
8:55 AM,35.6,33.8,93,29.35,7.0,WSW,8.1,-,N/A,,Overcast,240,2013-02-11 14:55:00
9:15 AM,35.6,33.8,93,29.36,10.0,West,10.4,-,N/A,,Overcast,260,2013-02-11 15:15:00
9:35 AM,35.6,33.8,93,29.37,10.0,West,11.5,18.4,N/A,,Overcast,280,2013-02-11 15:35:00
9:55 AM,35.6,32.0,87,29.39,10.0,West,12.7,21.9,N/A,,Overcast,280,2013-02-11 15:55:00
10:15 AM,35.6,32.0,87,29.41,10.0,West,11.5,20.7,N/A,,Overcast,280,2013-02-11 16:15:00
10:35 AM,35.6,32.0,87,29.43,10.0,West,11.5,18.4,N/A,,Overcast,280,2013-02-11 16:35:00
10:55 AM,35.6,32.0,87,29.44,10.0,WNW,12.7,21.9,N/A,,Overcast,290,2013-02-11 16:55:00
11:15 AM,35.6,32.0,87,29.46,10.0,West,13.8,18.4,N/A,,Overcast,280,2013-02-11 17:15:00
11:35 AM,35.6,30.2,81,29.48,10.0,West,12.7,21.9,N/A,,Overcast,280,2013-02-11 17:35:00
11:55 AM,35.6,30.2,81,29.49,10.0,WNW,13.8,26.5,N/A,,Overcast,290,2013-02-11 17:55:00
12:15 PM,35.6,28.4,75,29.50,10.0,WNW,11.5,25.3,N/A,,Overcast,290,2013-02-11 18:15:00
12:35 PM,35.6,30.2,81,29.51,10.0,West,13.8,24.2,N/A,,Overcast,280,2013-02-11 18:35:00
12:55 PM,35.6,28.4,75,29.53,10.0,WNW,12.7,24.2,N/A,,Overcast,290,2013-02-11 18:55:00
1:15 PM,35.6,28.4,75,29.54,10.0,WNW,13.8,25.3,N/A,,Overcast,290,2013-02-11 19:15:00
1:35 PM,35.6,28.4,75,29.56,10.0,WNW,15.0,24.2,N/A,,Overcast,290,2013-02-11 19:35:00
1:55 PM,33.8,28.4,81,29.57,10.0,WNW,12.7,20.7,N/A,,Overcast,290,2013-02-11 19:55:00
2:15 PM,33.8,28.4,81,29.58,10.0,West,15.0,28.8,N/A,,Overcast,280,2013-02-11 20:15:00
2:35 PM,33.8,28.4,81,29.60,10.0,West,17.3,21.9,N/A,,Overcast,280,2013-02-11 20:35:00
2:55 PM,33.8,26.6,75,29.62,10.0,WNW,16.1,27.6,N/A,,Overcast,290,2013-02-11 20:55:00
3:15 PM,33.8,28.4,81,29.64,10.0,West,16.1,23.0,N/A,,Overcast,280,2013-02-11 21:15:00
3:35 PM,32.0,26.6,80,29.65,10.0,West,17.3,25.3,N/A,,Overcast,270,2013-02-11 21:35:00
3:55 PM,32.0,26.6,80,29.67,10.0,West,11.5,20.7,N/A,,Overcast,280,2013-02-11 21:55:00
4:55 PM,32.0,24.8,75,29.71,10.0,WNW,13.8,20.7,N/A,,Overcast,290,2013-02-11 22:55:00
5:15 PM,32.0,24.8,75,29.72,10.0,West,16.1,24.2,N/A,,Overcast,280,2013-02-11 23:15:00
5:35 PM,32.0,23.0,69,29.74,10.0,WNW,10.4,21.9,N/A,,Overcast,290,2013-02-11 23:35:00
5:55 PM,32.0,23.0,69,29.75,10.0,WNW,11.5,18.4,N/A,,Overcast,290,2013-02-11 23:55:00
6:15 PM,32.0,23.0,69,29.77,10.0,West,9.2,16.1,N/A,,Overcast,280,2013-02-12 00:15:00
6:35 PM,32.0,21.2,64,29.78,10.0,WNW,16.1,26.5,N/A,,Overcast,300,2013-02-12 00:35:00
6:55 PM,30.2,21.2,69,29.79,10.0,WNW,16.1,23.0,N/A,,Overcast,290,2013-02-12 00:55:00
7:15 PM,30.2,21.2,69,29.81,10.0,WNW,10.4,20.7,N/A,,Overcast,290,2013-02-12 01:15:00
7:35 PM,30.2,19.4,64,29.82,10.0,WNW,10.4,19.6,N/A,,Overcast,300,2013-02-12 01:35:00
7:55 PM,30.2,21.2,69,29.83,10.0,West,9.2,18.4,N/A,,Overcast,280,2013-02-12 01:55:00
8:15 PM,30.2,21.2,69,29.84,10.0,WNW,10.4,17.3,N/A,,Overcast,290,2013-02-12 02:15:00
8:35 PM,30.2,21.2,69,29.84,10.0,WNW,9.2,-,N/A,,Overcast,290,2013-02-12 02:35:00
8:55 PM,30.2,21.2,69,29.85,10.0,West,10.4,18.4,N/A,,Overcast,280,2013-02-12 02:55:00
9:15 PM,30.2,21.2,69,29.86,10.0,WNW,13.8,19.6,N/A,Snow,Light Snow,290,2013-02-12 03:15:00
9:35 PM,30.2,21.2,69,29.86,10.0,WNW,10.4,-,N/A,,Overcast,290,2013-02-12 03:35:00
9:55 PM,30.2,21.2,69,29.87,10.0,WNW,9.2,-,N/A,Snow,Light Snow,290,2013-02-12 03:55:00
10:15 PM,30.2,21.2,69,29.87,10.0,WNW,10.4,17.3,N/A,,Overcast,300,2013-02-12 04:15:00
10:35 PM,30.2,21.2,69,29.88,10.0,WNW,8.1,-,N/A,,Overcast,290,2013-02-12 04:35:00
10:55 PM,30.2,19.4,64,29.89,10.0,WNW,10.4,20.7,N/A,,Overcast,290,2013-02-12 04:55:00
11:15 PM,28.4,19.4,69,29.89,10.0,WNW,9.2,16.1,N/A,,Overcast,300,2013-02-12 05:15:00
11:35 PM,28.4,19.4,69,29.90,10.0,WNW,5.8,-,N/A,,Overcast,290,2013-02-12 05:35:00
11:55 PM,28.4,19.4,69,29.90,10.0,WNW,9.2,19.6,N/A,,Overcast,290,2013-02-12 05:55:00